Location: Brompton
(51.4000°N, 0.5333°E)
Time: 16:34:25
(UTC+00:00)

Cosmos 494 Rocket - Pass Details

Date: 11 May 2021
Orbit: 743 x 770 km, 74.1° (Epoch: 23 June)

Event Time Altitude Azimuth Distance (km) Brightness Sun altitude
Rises 23:10:10 0° 337° (NNW) 3,234 8.7 -19.8°
Reaches altitude 10° 23:12:36 10° 342° (NNW) 2,300 7.7 -19.9°
Maximum altitude 23:17:43 55° 60° (ENE) 907 4.4 -20.0°
Enters shadow 23:20:07 30° 124° (SE) 1,341 4.9 -20.1°
